METEOR 2-11 DEB, 40710

Orbit data source: Space-Track

METEOR 2-11 DEB, 40710 is space debris in LEO originally from a launch on Thu, 05 Jul 1984 UTC launched from the Plesetsk Missile And Space Complex (PKMTR). Debris objects in space refer to the collection of defunct objects orbiting the Earth. Examples of debris include non-operational satellites, rocket bodies, and fragments generated from explosions, collisions, or faulty payload assembly.

Loading next visibility...
Identifier
40710, 1984-072M
Orbit
LEO
Country
Flag of CISCIS
Related business
Manufacturer
Unknown
Mission
Spacecraft
Bus & Motor
Unknown
Mass
Unknown
Launch date (UTC)
1984-07-05 (41 years ago)
Launch vehicle
Unknown
Launch site
Plesetsk Missile And Space Complex (PKMTR)
Object type
Payload
Rocket body
Debris
Shape & HBR
Unknown shape, 0.1 m
Radar Cross Section
Small (<0.1 m²)

Expand to show TLE details & history
Last TLE update: 2 days ago

TLE from 2 days ago
0 METEOR 2-11 DEB
1 40710U 84072M   25346.74881729  .00004425  00000-0  31831-2 0  9992
2 40710  82.5244 161.7733 0036744 209.4082 150.5019 13.96342312 85105
Epoch: 2025-12-12T17:58Z
TLE epoch observation values (Epoch: 2025-12-12T17:58:17.813Z)
Latitude
0.00002°
Longitude
170.5131°
Altitude
932.732 km
Speed
7.374 km/s
True Right ascension
10h 47m 05s
True Declination
0° 00' 00"
Sunlit
Object was in daylight at epoch
Visualization orbit readout
Latitude
Unknown
Longitude
Unknown
Altitude
Unknown
Speed
Unknown
Apparent Right ascension
Unknown
Apparent Declination
Unknown
Sunlit
N/A
Visualization observer readout
Local Sidereal Time
07:43:53
Azimuth
Unknown
Elevation
Unknown
Doppler factor
Unknown
Orbital elements
Apogee altitude
930.381 km
Perigee altitude
876.868 km
Semi-major axis
7,281.762 km
Eccentricity
0.00367
Inclination
82.5244°
RAAN
161.7733°
Arg. of periapsis
209.4082°
True anomaly
150.7084°
Mean anomaly
150.5019°
Eccentric anomaly
150.60523°
Mean motion
3.49292 °/min
Orbital period
103.07 mins
BSTAR
0.0031831
Loading maneuver chart data...
Computing Atmospheric mass density...
Loading historical data...
Loading historical data...
Loading historical data...
Loading historical data...
Loading historical data...
Loading historical data...
Loading historical data...

Documentation

Showing up to 5 results
|